D2913 Weather Reports


Display with metric or nautical units.
time (UTC)temp
F
wind
direction
speed
MPH
gust
MPH
rain 1hr
in
rain 24hr
in
rain mn
in
humidity
%
barometer
mb
20260506201016 49 0 0.0 0.0 0.00 0.06 0.06 91 1008.1
20260506200516 49 0 0.0 0.0 0.00 0.06 0.06 91 1008.1
20260506200017 49 0 0.0 0.0 0.00 0.06 0.06 91 1008.0
20260506195016 49 0 0.0 0.0 0.00 0.06 0.06 91 1008.1
20260506194517 50 0 0.0 0.0 0.00 0.06 0.06 91 1008.0
20260506194016 50 0 0.0 0.0 0.00 0.06 0.06 91 1008.1
20260506193517 50 0 0.0 0.0 0.00 0.06 0.06 91 1008.1
20260506193016 50 0 0.0 0.0 0.00 0.06 0.06 91 1008.1
20260506191016 50 0 0.0 0.0 0.00 0.06 0.06 91 1007.9
20260506190517 50 0 0.0 0.0 0.00 0.06 0.06 91 1007.8
20260506185517 51 0 0.0 0.0 0.00 0.06 0.06 91 1007.6
20260506185016 51 0 0.0 0.0 0.00 0.06 0.06 91 1007.6
20260506184516 51 0 0.0 0.0 0.00 0.06 0.06 91 1007.7
20260506184017 51 0 0.0 0.0 0.00 0.06 0.06 91 1007.7
20260506183517 51 0 0.0 0.0 0.00 0.06 0.06 91 1007.6
20260506183016 51 0 0.0 0.0 0.00 0.06 0.06 91 1007.6
20260506182516 51 0 0.0 0.0 0.00 0.06 0.06 91 1007.7
20260506182017 51 0 0.0 0.0 0.00 0.06 0.06 91 1007.6
20260506181016 51 0 0.0 0.0 0.00 0.07 0.06 91 1007.5
20260506180517 51 0 0.0 0.0 0.00 0.07 0.06 91 1007.4
20260506180017 51 0 0.0 0.0 0.00 0.07 0.06 91 1007.2
20260506175518 51 0 0.0 0.0 0.00 0.07 0.06 91 1007.2
20260506175017 51 0 0.0 0.0 0.00 0.07 0.06 91 1007.2
20260506174516 51 0 0.0 0.0 0.00 0.07 0.06 91 1007.2
20260506174016 51 0 0.0 0.0 0.00 0.07 0.06 91 1007.1
20260506173516 52 0 0.0 0.0 0.00 0.07 0.06 91 1007.1
20260506173016 52 0 0.0 0.0 0.01 0.07 0.06 90 1006.9
20260506172537 52 0 0.0 0.0 0.01 0.07 0.06 90 1006.8
20260506172016 52 0 0.0 0.0 0.01 0.07 0.06 90 1006.6
20260506171516 52 0 0.0 0.0 0.01 0.07 0.06 90 1006.4
20260506171017 52 0 0.0 0.0 0.01 0.07 0.06 90 1006.3
20260506170516 52 0 0.0 0.0 0.01 0.08 0.06 90 1006.0
20260506170017 52 0 0.0 0.0 0.01 0.08 0.06 91 1006.0
20260506165516 52 0 0.0 0.0 0.01 0.08 0.06 91 1005.9
20260506165016 52 0 0.0 0.0 0.01 0.08 0.06 91 1006.0
20260506164517 52 0 0.0 0.0 0.01 0.08 0.06 91 1006.1
20260506164016 52 0 0.0 0.0 0.01 0.08 0.06 91 1006.1
20260506163016 53 0 0.0 0.0 0.00 0.07 0.06 91 1006.2
20260506162517 53 0 0.0 0.0 0.01 0.07 0.06 91 1006.1
20260506162036 53 0 0.0 0.0 0.01 0.07 0.06 91 1006.2
20260506161518 53 0 0.0 0.0 0.01 0.07 0.06 91 1006.2
20260506161017 53 0 0.0 0.0 0.01 0.07 0.06 91 1006.0
20260506160516 53 0 0.0 0.0 0.01 0.07 0.06 91 1005.8
20260506160040 53 0 0.0 0.0 0.01 0.07 0.06 91 1005.7
20260506155517 53 0 0.0 0.0 0.01 0.07 0.06 91 1005.7
20260506155017 54 0 0.0 0.0 0.02 0.07 0.06 90 1005.8
20260506154017 59 0 0.0 0.0 0.02 0.07 0.06 90 1006.2
20260506153516 59 0 0.0 0.0 0.02 0.07 0.06 90 1005.5
20260506153016 59 0 0.0 0.0 0.01 0.06 0.05 89 1005.6
20260506151516 60 0 0.0 0.0 0.02 0.06 0.05 88 1005.0
20260506151017 60 0 0.0 0.0 0.02 0.06 0.05 89 1005.0
20260506150538 60 0 0.0 0.0 0.02 0.06 0.05 90 1005.0
20260506150016 59 0 0.0 0.0 0.02 0.06 0.05 89 1005.0
20260506145517 59 0 0.0 0.0 0.02 0.06 0.05 89 1005.0
20260506144516 58 0 0.0 0.0 0.02 0.06 0.04 88 1005.0
20260506144017 58 0 0.0 0.0 0.02 0.06 0.04 88 1004.9
20260506143516 58 0 0.0 0.0 0.02 0.06 0.04 90 1005.0
20260506143017 58 0 0.0 0.0 0.02 0.06 0.04 90 1004.8
20260506142517 58 0 0.0 0.0 0.02 0.05 0.03 90 1005.0
20260506141516 56 0 0.0 0.0 0.03 0.05 0.03 91 1004.7
20260506141016 56 0 0.0 0.0 0.03 0.05 0.03 90 1004.7
20260506140016 55 0 0.0 0.0 0.02 0.04 0.02 89 1004.6
20260506135517 55 0 0.0 0.0 0.02 0.04 0.02 89 1004.8
20260506135016 55 0 0.0 0.0 0.02 0.04 0.02 90 1004.8
20260506134516 56 0 0.0 0.0 0.02 0.03 0.02 90 1004.9
20260506133516 58 0 0.0 0.0 0.02 0.03 0.02 90 1005.7
20260506133017 58 0 0.0 0.0 0.01 0.02 0.01 90 1005.7
20260506132516 59 0 0.0 0.0 0.01 0.02 0.01 90 1005.8
20260506132016 59 0 0.0 0.0 0.01 0.02 0.01 90 1005.7
20260506131516 59 0 0.0 0.0 0.00 0.02 0.00 89 1005.4
20260506130516 60 0 0.0 0.0 0.00 0.02 0.00 87 1004.9
20260506130016 61 0 0.0 0.0 0.00 0.02 0.00 86 1004.9
20260506125016 62 0 0.0 0.0 0.00 0.02 0.00 85 1004.8
20260506124518 62 0 0.0 0.0 0.00 0.02 0.00 86 1004.8
20260506124016 62 0 0.0 0.0 0.00 0.02 0.00 84 1004.7
20260506123517 62 0 0.0 0.0 0.00 0.02 0.00 84 1004.9
20260506123016 62 0 0.0 0.0 0.00 0.02 0.00 83 1005.0
20260506122516 62 0 0.0 0.0 0.00 0.02 0.00 83 1005.0
20260506122017 61 0 0.0 0.0 0.00 0.02 0.00 83 1004.9
20260506121016 62 0 0.0 0.0 0.00 0.02 0.00 83 1005.1
20260506120017 62 0 0.0 0.0 0.00 0.02 0.00 83 1004.9
20260506115516 62 0 0.0 0.0 0.00 0.02 0.00 83 1004.9
20260506115016 62 0 0.0 0.0 0.00 0.02 0.00 83 1005.2
20260506114516 62 0 0.0 0.0 0.00 0.02 0.00 84 1005.2
20260506114017 62 0 0.0 0.0 0.00 0.02 0.00 84 1005.5
20260506113517 62 0 0.0 0.0 0.00 0.02 0.00 84 1005.4
20260506113016 62 0 0.0 0.0 0.00 0.02 0.00 84 1005.4
20260506112531 62 0 0.0 0.0 0.00 0.02 0.00 84 1005.4
20260506110537 64 0 0.0 0.0 0.00 0.02 0.00 82 1005.8
20260506110017 64 0 0.0 0.0 0.00 0.02 0.00 82 1005.9
20260506105517 65 0 0.0 0.0 0.00 0.02 0.00 81 1006.1
20260506105016 65 0 0.0 0.0 0.00 0.02 0.00 82 1006.1
20260506104517 64 0 0.0 0.0 0.00 0.02 0.00 82 1006.1
20260506104016 64 0 0.0 0.0 0.00 0.02 0.00 82 1006.0
20260506103516 63 0 0.0 0.0 0.00 0.02 0.00 82 1006.0
20260506103016 62 0 0.0 0.0 0.00 0.02 0.00 83 1006.0
20260506102516 63 0 0.0 0.0 0.00 0.02 0.00 83 1006.2
20260506102016 62 0 0.0 0.0 0.00 0.02 0.00 83 1006.0
20260506101517 62 0 0.0 0.0 0.00 0.02 0.00 84 1005.9
20260506101017 61 0 0.0 0.0 0.00 0.02 0.00 84 1005.9
20260506100516 61 0 0.0 0.0 0.00 0.02 0.00 84 1006.0
20260506100016 62 0 0.0 0.0 0.00 0.02 0.00 84 1006.1
20260506095516 62 0 0.0 0.0 0.00 0.02 0.00 85 1006.2
20260506095016 61 0 0.0 0.0 0.00 0.02 0.00 86 1006.1
20260506094517 61 0 0.0 0.0 0.00 0.02 0.00 85 1006.0
20260506094016 61 0 0.0 0.0 0.00 0.02 0.00 85 1006.1
20260506093517 61 0 0.0 0.0 0.00 0.02 0.00 85 1006.1
20260506093016 61 0 0.0 0.0 0.00 0.02 0.00 86 1006.1
20260506092517 61 0 0.0 0.0 0.00 0.02 0.00 86 1006.0
20260506092017 60 0 0.0 0.0 0.00 0.02 0.00 87 1006.0
20260506091516 59 0 0.0 0.0 0.00 0.02 0.00 87 1006.1
20260506091017 59 0 0.0 0.0 0.00 0.02 0.00 87 1006.0
20260506090516 59 0 0.0 0.0 0.00 0.02 0.00 87 1006.0
20260506090017 60 0 0.0 0.0 0.00 0.02 0.00 87 1006.0
20260506085516 60 0 0.0 0.0 0.00 0.02 0.00 87 1005.8
20260506084516 59 0 0.0 0.0 0.00 0.02 0.00 85 1006.0
20260506084017 59 0 0.0 0.0 0.00 0.02 0.00 86 1006.1
20260506083516 59 0 0.0 0.0 0.00 0.02 0.00 86 1006.2
20260506083017 59 0 0.0 0.0 0.00 0.02 0.00 86 1006.0
20260506082516 59 0 0.0 0.0 0.00 0.02 0.00 86 1006.0
20260506082016 59 0 0.0 0.0 0.00 0.02 0.00 86 1006.0
20260506081016 58 0 0.0 0.0 0.00 0.02 0.00 87 1005.8
20260506080516 58 0 0.0 0.0 0.00 0.02 0.00 87 1005.8
20260506073517 58 0 0.0 0.0 0.00 0.02 0.00 88 1005.8
20260506073016 57 0 0.0 0.0 0.00 0.02 0.00 88 1005.8
20260506072516 57 0 0.0 0.0 0.00 0.02 0.00 89 1005.8
20260506072017 57 0 0.0 0.0 0.00 0.02 0.00 89 1005.8
20260506071517 57 0 0.0 0.0 0.00 0.02 0.00 89 1006.0
20260506071016 56 0 0.0 0.0 0.00 0.02 0.00 89 1006.0
20260506062516 56 0 0.0 0.0 0.00 0.03 0.00 90 1006.0
20260506062016 56 0 0.0 0.0 0.00 0.03 0.00 90 1006.0
20260506061517 55 0 0.0 0.0 0.00 0.03 0.00 91 1005.8
20260506061017 54 0 0.0 0.0 0.00 0.03 0.00 91 1005.8
20260506051017 48 0 0.0 0.0 0.00 0.03 0.00 87 1005.1
20260506050517 48 0 0.0 0.0 0.00 0.03 0.00 88 1005.2
20260506045016 48 0 0.0 0.0 0.00 0.03 0.00 89 1005.1
20260506044517 48 0 0.0 0.0 0.00 0.03 0.00 90 1005.2
20260506044016 48 0 0.0 0.0 0.00 0.03 0.00 90 1005.2
20260506043516 48 0 0.0 0.0 0.00 0.03 0.00 90 1005.4
20260506043016 49 0 0.0 0.0 0.00 0.03 0.00 90 1005.5
20260506042517 49 0 0.0 0.0 0.00 0.03 0.00 91 1005.5
20260506041017 49 0 0.0 0.0 0.00 0.04 0.00 90 1005.6
20260506040016 49 0 0.0 0.0 0.00 0.04 0.00 90 1005.6
20260506035517 49 0 0.0 0.0 0.00 0.04 0.00 89 1005.6
20260506035016 49 0 0.0 0.0 0.00 0.04 0.00 89 1005.7
20260506034017 49 0 0.0 0.0 0.00 0.04 0.00 88 1005.8
20260506033516 49 0 0.0 0.0 0.00 0.04 0.00 88 1005.9
20260506033016 49 0 0.0 0.0 0.00 0.04 0.00 88 1006.0
20260506032516 49 0 0.0 0.0 0.00 0.04 0.00 88 1006.1
20260506032016 49 0 0.0 0.0 0.00 0.04 0.00 88 1006.1
20260506031520 48 0 0.0 0.0 0.00 0.04 0.00 88 1006.1
20260506031017 48 0 0.0 0.0 0.00 0.04 0.00 88 1006.0
20260506030516 48 0 0.0 0.0 0.00 0.04 0.00 88 1006.1
20260506030017 48 0 0.0 0.0 0.00 0.04 0.00 88 1006.1
20260506025517 48 0 0.0 0.0 0.00 0.04 0.00 89 1006.1
20260506024516 48 0 0.0 0.0 0.00 0.04 0.00 89 1006.3
20260506024016 48 0 0.0 0.0 0.00 0.04 0.00 89 1006.4
20260506023016 48 0 0.0 0.0 0.00 0.04 0.00 90 1006.5
20260506022543 48 0 0.0 0.0 0.00 0.04 0.00 90 1006.6
20260506022017 48 0 0.0 0.0 0.00 0.04 0.00 90 1006.5
20260506021539 49 0 0.0 0.0 0.00 0.04 0.00 90 1006.5
20260506021016 49 0 0.0 0.0 0.00 0.04 0.00 90 1006.6
20260506020517 49 0 0.0 0.0 0.00 0.05 0.00 90 1006.4
20260506020016 49 0 0.0 0.0 0.00 0.05 0.00 90 1006.2
20260506015017 48 0 0.0 0.0 0.00 0.05 0.00 90 1006.3
20260506014516 48 0 0.0 0.0 0.00 0.05 0.00 90 1006.4
20260506013517 48 0 0.0 0.0 0.00 0.05 0.00 90 1006.4
20260506013017 48 0 0.0 0.0 0.00 0.05 0.00 90 1006.3
20260506012017 48 0 0.0 0.0 0.00 0.05 0.00 90 1006.5
20260506011517 48 0 0.0 0.0 0.00 0.05 0.00 91 1006.6
20260506011017 49 0 0.0 0.0 0.00 0.05 0.00 91 1006.8
20260506010516 49 0 0.0 0.0 0.00 0.05 0.00 91 1006.9
20260506010016 49 0 0.0 0.0 0.00 0.05 0.00 91 1007.2
20260506005516 50 0 0.0 0.0 0.00 0.05 0.00 91 1007.2
20260506004517 50 0 0.0 0.0 0.00 0.05 0.00 91 1006.9
20260506004017 50 0 0.0 0.0 0.00 0.05 0.00 90 1006.9
20260506003516 50 0 0.0 0.0 0.00 0.06 0.00 90 1006.9
20260506002516 49 0 0.0 0.0 0.00 0.06 0.00 90 1006.9
20260506002016 50 0 0.0 0.0 0.00 0.06 0.00 90 1007.2
20260506001516 50 0 0.0 0.0 0.00 0.06 0.00 90 1007.2
20260506001016 50 0 0.0 0.0 0.00 0.06 0.00 91 1007.2
20260506000517 50 0 0.0 0.0 0.00 0.06 0.00 91 1007.4
20260505235017 50 0 0.0 0.0 0.00 0.06 0.00 90 1007.5
20260505234017 50 0 0.0 0.0 0.00 0.06 0.00 90 1007.4
20260505233517 50 0 0.0 0.0 0.00 0.06 0.00 90 1007.4
20260505233016 50 0 0.0 0.0 0.00 0.06 0.00 90 1007.5
20260505232524 50 0 0.0 0.0 0.00 0.06 0.00 90 1007.6
20260505230517 51 0 0.0 0.0 0.00 0.06 0.00 90 1007.7
20260505230016 51 0 0.0 0.0 0.00 0.06 0.00 90 1007.7
20260505225516 51 0 0.0 0.0 0.00 0.06 0.00 90 1007.7
20260505225016 52 0 0.0 0.0 0.00 0.06 0.00 90 1007.7
20260505224517 52 0 0.0 0.0 0.00 0.06 0.00 90 1007.8
20260505224016 52 0 0.0 0.0 0.00 0.06 0.00 89 1007.8
20260505223516 51 0 0.0 0.0 0.00 0.06 0.00 89 1007.8
20260505222516 51 0 0.0 0.0 0.00 0.06 0.00 90 1007.8
20260505222016 51 0 0.0 0.0 0.00 0.06 0.00 90 1007.8
20260505221516 52 0 0.0 0.0 0.00 0.06 0.00 90 1007.8
20260505220516 52 0 0.0 0.0 0.00 0.06 0.00 90 1007.9
20260505220016 52 0 0.0 0.0 0.00 0.06 0.06 90 1007.9
20260505215517 52 0 0.0 0.0 0.00 0.06 0.06 90 1007.9
20260505215016 52 0 0.0 0.0 0.00 0.07 0.06 90 1007.8
20260505214516 52 0 0.0 0.0 0.00 0.07 0.06 90 1007.9
20260505214016 52 0 0.0 0.0 0.00 0.07 0.06 90 1007.9
20260505213516 52 0 0.0 0.0 0.00 0.07 0.06 90 1007.9
20260505213017 52 0 0.0 0.0 0.00 0.07 0.06 90 1007.9
20260505212517 53 0 0.0 0.0 0.00 0.07 0.06 91 1008.1
20260505212017 53 0 0.0 0.0 0.00 0.07 0.06 91 1008.0
20260505211516 53 0 0.0 0.0 0.00 0.07 0.06 91 1007.9
20260505211017 54 0 0.0 0.0 0.00 0.07 0.06 91 1007.8
20260505210517 54 0 0.0 0.0 0.00 0.07 0.06 91 1008.0
20260505210016 54 0 0.0 0.0 0.00 0.07 0.06 91 1008.0
20260505205016 55 0 0.0 0.0 0.00 0.07 0.06 91 1008.4
20260505204516 55 0 0.0 0.0 0.00 0.07 0.06 90 1008.3
20260505204016 55 0 0.0 0.0 0.00 0.07 0.06 90 1008.4
20260505203517 55 0 0.0 0.0 0.00 0.08 0.06 90 1008.4
20260505203016 56 0 0.0 0.0 0.00 0.08 0.06 90 1008.5
20260505202517 56 0 0.0 0.0 0.00 0.08 0.06 90 1008.5
20260505202017 56 0 0.0 0.0 0.00 0.08 0.06 90 1008.5
20260505201516 57 0 0.0 0.0 0.00 0.08 0.06 90 1008.6